Regional Weather Roundup
Issued by NWS

Home | Current Version | Previous Version | Text Only | Print | Product List | Glossary Off
Versions: 1 2 3 4 5 6 7 8 9 10 11 12 13 14 15 16 17 18 19 20 21 22 23 24 25 26 27 28 29 30 31 32 33 34 35 36 37 38 39 40 41 42 43 44 45 46 47 48 49 50

000
ASUS43 KDMX 270501
RWRIA

WEATHER ROUNDUP FOR IOWA
NATIONAL WEATHER SERVICE DES MOINES IA
1200 AM CDT TUE JUN 27 2017

NOTE: "FAIR" INDICATES FEW OR NO CLOUDS BELOW 12,000 FEET WITH NO
SIGNIFICANT WEATHER AND/OR OBSTRUCTIONS TO VISIBILITY.

* - THESE STATIONS ARE NOT NWS STATIONS...THUS NOT UNDER NWS
QUALITY CONTROL.  THEY ALSO DO NOT REPORT WEATHER SUCH
AS PRECIPITATION OR FOG.

IAZ001>003-012>014-020>022-031>034-043>046-270600-
   NORTHWEST IOWA

CITY           SKY/WX    TMP DP  RH WIND       PRES   REMARKS
CARROLL *      CLEAR     50  46  87 CALM      30.15S
CHEROKEE *     CLEAR     52  49  89 CALM      30.16R
DENISON *      CLEAR     52  48  87 CALM      30.17S
LE MARS *      CLEAR     50  46  87 CALM      30.16S
ORANGE CITY *  CLEAR     57  45  62 CALM      30.15F
SHELDON *      CLEAR     50  46  87 CALM      30.14S
SIOUX CITY     CLEAR     51  46  83 CALM      30.15
SPENCER        CLEAR     52  45  77 CALM      30.15F
STORM LAKE *   CLEAR     55  41  58 E5        30.16S
$$

IAZ055>058-069>071-079>083-090>094-270600-
   SOUTHWEST IOWA

CITY           SKY/WX    TMP DP  RH WIND       PRES   REMARKS
ATLANTIC *     PTCLDY    54  50  87 N5        30.15S
AUDUBON *      CLEAR     52  48  87 CALM      30.17S
CLARINDA *     PTCLDY    57  57 100 CALM      30.17S
COUNCIL BLFS * CLEAR     59  52  77 E5        30.15R
CRESTON *      CLEAR     57  48  72 E6        30.17R
HARLAN  *      CLEAR     52  50  93 CALM      30.19R
LAMONI         PTCLDY    62  50  64 E5        30.15R
RED OAK *      CLEAR     55  54  94 CALM      30.15S FOG
SHENANDOAH *   CLEAR     59  57  94 NE3       30.15S
$$

IAZ047>049-059>061-072>074-084-270600-
   CENTRAL IOWA

CITY           SKY/WX    TMP DP  RH WIND       PRES   REMARKS
AMES           PTCLDY    53  49  86 CALM      30.15R
ANKENY *       PTCLDY    52  46  82 CALM      30.16R
BOONE *        PTCLDY    55  46  71 CALM      30.15R
CHARITON *     CLEAR     59  48  67 NE3       30.15R
DES MOINES     PTCLDY    62  43  49 NE5       30.15R
GRINNELL*      CLEAR     56  44  64 NE3       30.16R
KNOXVILLE *    CLEAR     61  43  51 E6        30.14R
MARSHALLTOWN   PTCLDY    52  48  86 W3        30.14S
NEWTON *       PTCLDY    57  43  58 NE5       30.15S
PELLA *        CLEAR     58  44  59 CALM      30.15S
PERRY *          N/A     55  50  84 NE3       30.16R
$$

IAZ004>006-015-016-023>025-035-036-270600-
   NORTH CENTRAL IOWA

CITY           SKY/WX    TMP DP  RH WIND       PRES   REMARKS
ALGONA *       CLEAR     55  46  71 CALM      30.15F
CLARION *        N/A     52  48  87 CALM      30.15S
ESTHERVILLE    CLEAR     52  46  80 S6        30.14F
FORT DODGE *   PTCLDY    50  43  76 CALM      30.16F
MASON CITY     CLEAR     52  43  71 W5        30.16S
FOREST CITY *    N/A     46  27  46 CALM      30.15S
WEBSTER CITY * PTCLDY    54  45  71 CALM      30.14S
IOWA FALLS *     N/A     53  46  76 CALM      30.16S
$$

IAZ007>011-017>019-026>030-037>042-050>054-066-270600-
   NORTHEAST IOWA

CITY           SKY/WX    TMP DP  RH WIND       PRES   REMARKS
CEDAR RAPIDS   CLEAR     53  47  79 CALM      30.13S
CHARLES CITY * CLEAR     54  46  76 W3        30.14S
CLINTON *      CLEAR     53  46  77 N5        30.13S
DECORAH *      CLEAR     52  46  82 CALM      30.13R
DUBUQUE        CLEAR     50  45  83 SW3       30.13S
MONTICELLO *   CLEAR     50  48  93 CALM      30.13S
OELWEIN *      CLEAR     54  46  76 W5        30.14S
WATERLOO       PTCLDY    53  47  79 CALM      30.13S
$$

IAZ064-065-067-068-078-270600-
   EAST CENTRAL IOWA

CITY           SKY/WX    TMP DP  RH WIND       PRES   REMARKS
DAVENPORT      CLEAR     53  47  79 N5        30.13S
IOWA CITY      PTCLDY    55  47  74 CALM      30.14F
MUSCATINE *    CLEAR     55  52  88 CALM      30.14R
QUAD CITIES    CLEAR     55  47  74 CALM      30.13R
$$

IAZ062-063-075>077-085>089-095>099-270600-
   SOUTHEAST IOWA

CITY           SKY/WX    TMP DP  RH WIND       PRES   REMARKS
BURLINGTON     CLEAR     57  49  74 NE6       30.13R
FAIRFIELD *    CLEAR     54  46  76 NE3       30.14R
FORT MADISON * CLEAR     59  52  77 CALM      30.15R
KEOKUK *       CLEAR     57  54  88 CALM      30.13R
OSKALOOSA *      N/A     54  46  74 NE5       30.15R
OTTUMWA        CLEAR     58  45  62 NE5       30.14R
WASHINGTON *   CLEAR     55  46  71 CALM      30.15S
$$

ABBREVIATIONS USED IN REMARKS
   TC - TEMPERATURES IN CELSIUS
  WCI - WIND CHILL INDEX
   HX - HEAT INDEX
  VSB - VISIBILITY
$$





USA.gov is the U.S. government's official web portal to all federal, state and local government web resources and services.